Weather History for Ann Arbor, MI

Change the Weather History Date:

Monday, December 26, 2011

  Actual Average Record
Temperature  
Mean Temperature 38 °F -  
Max Temperature 44 °F 29 °F 44 °F (2011)
Min Temperature 32 °F 15 °F -2 °F (2000)
Degree Days  
Heating Degree Days 27    
Moisture  
Dew Point 28 °F    
Average Humidity 74    
Maximum Humidity 92    
Minimum Humidity 58    
Precipitation  
Precipitation 0.00 in - - ()
Sea Level Pressure  
Sea Level Pressure 30.19 in    
Wind  
Wind Speed 7 mph (SW)    
Max Wind Speed 18 mph    
Max Gust Speed 24 mph    
Visibility 10 miles    
Events      
Averages and records for this station are not official NWS values.
T = Trace of Precipitation, MM = Missing Value Source: NWS Daily Summary

Daily Weather History Graph

Daily Weather History Graph

Search for Another Location

Airport:

Trip Planner

Search our weather history database for the weather conditions in past years. The results will help you decide how hot, cold, wet, or windy it might be!

Date:

Astronomy

Dec. 26, 2011 Rise Set
Actual Time 8:02 AM EST 5:08 PM EST
Civil Twilight 7:30 AM EST 5:40 PM EST
Nautical Twilight 6:55 AM EST 6:15 PM EST
Astronomical Twilight 6:21 AM EST 6:50 PM EST
Moon 9:19 AM EST (12/26) 7:37 PM EST (12/26)
Length of Visible Light 10h 09m
Length of Day
9h 06m
Waxing Crescent, 5% of the Moon is Illuminated
Dec 26
Waxing Crescent
Jan 1
First Quarter
Jan 9
Full
Jan 16
Last Quarter
Jan 23
New

Hourly Weather History & Observations

Time (EST) Temp. Windchill Dew Point Humidity Pressure Visibility Wind Dir Wind Speed Gust Speed Precip Events Conditions
12:53 AM 35.1 °F 29.3 °F 30.0 °F 82% 30.24 in 10.0 mi West 6.9 mph - N/A   Overcast
1:53 AM 37.0 °F 32.4 °F 28.0 °F 70% 30.25 in 10.0 mi NW 5.8 mph - N/A   Overcast
2:53 AM 36.0 °F 31.1 °F 26.1 °F 67% 30.25 in 10.0 mi NNW 5.8 mph - N/A   Overcast
3:53 AM 34.0 °F 31.0 °F 25.0 °F 70% 30.28 in 10.0 mi NW 3.5 mph - N/A   Overcast
4:53 AM 33.1 °F - 25.0 °F 72% 30.29 in 10.0 mi Calm Calm - N/A   Overcast
5:53 AM 32.0 °F 27.5 °F 27.0 °F 82% 30.32 in 10.0 mi SW 4.6 mph - N/A   Overcast
7:53 AM 32.0 °F 27.5 °F 26.1 °F 79% 30.33 in 10.0 mi SSW 4.6 mph - N/A   Overcast
8:53 AM 32.0 °F 28.7 °F 27.0 °F 82% 30.32 in 10.0 mi SSW 3.5 mph - N/A   Mostly Cloudy
9:53 AM 37.0 °F 31.6 °F 28.0 °F 70% 30.31 in 10.0 mi SW 6.9 mph - N/A   Clear
10:53 AM 39.9 °F 33.4 °F 28.0 °F 63% 30.31 in 10.0 mi WSW 10.4 mph - N/A   Clear
11:53 AM 41.0 °F 34.7 °F 28.9 °F 62% 30.25 in 10.0 mi SSW 10.4 mph - N/A   Clear
12:53 PM 43.0 °F 36.8 °F 28.9 °F 58% 30.20 in 10.0 mi SW 11.5 mph - N/A   Clear
1:53 PM 43.0 °F 34.8 °F 28.9 °F 58% 30.17 in 10.0 mi SSW 18.4 mph 24.2 mph N/A   Clear
2:53 PM 44.1 °F 40.1 °F 30.0 °F 58% 30.16 in 10.0 mi SW 6.9 mph 20.7 mph N/A   Clear
3:53 PM 42.1 °F 36.1 °F 28.9 °F 60% 30.12 in 10.0 mi SW 10.4 mph - N/A   Clear
4:53 PM 39.0 °F 34.0 °F 30.0 °F 70% 30.10 in 10.0 mi SSW 6.9 mph - N/A   Clear
5:53 PM 37.9 °F 32.1 °F 30.0 °F 73% 30.13 in 10.0 mi SSW 8.1 mph - N/A   Clear
6:53 PM 36.0 °F 30.3 °F 30.0 °F 79% 30.11 in 10.0 mi SSW 6.9 mph - N/A   Clear
7:53 PM 34.0 °F 28.8 °F 30.0 °F 85% 30.09 in 10.0 mi SSW 5.8 mph - N/A   Clear
8:53 PM 33.1 °F 28.7 °F 30.0 °F 89% 30.07 in 10.0 mi SSW 4.6 mph - N/A   Clear
9:53 PM 32.0 °F 26.4 °F 28.9 °F 88% 30.03 in 10.0 mi SSW 5.8 mph - N/A   Clear
10:53 PM 32.0 °F 25.6 °F 30.0 °F 92% 30.00 in 10.0 mi South 6.9 mph - N/A   Clear
11:53 PM 33.1 °F 26.1 °F 30.0 °F 89% 29.96 in 10.0 mi South 8.1 mph - N/A   Clear